User: anonymous   Login
Location: Unspecified
(0.0000°N, 0.0000°E)
Time: 04:07:47
(UTC+00:00)
Language:

SRMSAT - Orbit

View from above orbital plane
View from above orbital plane
View from above satellite
View from above satellite

Ground track
Ground track

The orbit data is extracted from the following two-line orbital elements,

1 37841U 11058D   18110.30374749  .00000299  00000-0  18916-4 0  9995
2 37841  19.9722  76.2481 0011797 213.9253 297.8632 14.10603752336708
Epoch (UTC): 20 April 2018 07:17:23
Eccentricity: 0.0011797
inclination: 19.9722°
perigee height: 849 km
apogee height: 866 km
right ascension of ascending node: 76.2481°
argument of perigee: 213.9253°
revolutions per day: 14.10603752
mean anomaly at epoch: 297.8632°
orbit number at epoch: 33670

The dashed part of the orbit path shows where the satellite is in the earth's shadow,  

DLR